Weaverville, CA

2:03 AM PDT on October 21, 2017 (GMT -0700)
Weaverville

Weather History for KO54 - October, 2013

Change the Weather History Date:

Tuesday, October 8, 2013

  Actual Average (KRDD) Record (KRDD)
Temperature  
Mean Temperature 50 °F -  
Max Temperature 66 °F 81 °F 99 °F (1996)
Min Temperature 35 °F 50 °F 43 °F (1994)
Degree Days  
Heating Degree Days 14    
Moisture  
Dew Point 36 °F    
Average Humidity 69    
Maximum Humidity 93    
Minimum Humidity 28    
Precipitation  
Precipitation 0.00 in - - ()
Sea Level Pressure  
Sea Level Pressure 29.94 in    
Wind  
Wind Speed 1 mph (NW)    
Max Wind Speed 10 mph    
Max Gust Speed -    
Visibility 10 miles    
Events      
Averages and records for this station are not official NWS values.
T = Trace of Precipitation, MM = Missing Value Source: NWS Daily Summary

Daily Weather History Graph

Daily Weather History Graph

Search for Another Location

Airport or City:

Trip Planner

Search our weather history database for the weather conditions in past years. The results will help you decide how hot, cold, wet, or windy it might be!

Date:

Astronomy

Oct. 08, 2013 Rise Set
Actual Time 7:15 AM PDT 6:41 PM PDT
Civil Twilight 6:48 AM PDT 7:09 PM PDT
Nautical Twilight 6:16 AM PDT 7:40 PM PDT
Astronomical Twilight 5:44 AM PDT 8:12 PM PDT
Moon 11:17 AM PDT (10/8) 9:22 PM PDT (10/8)
Length of Visible Light 12h 20m
Length of Day
11h 25m
Waxing Crescent, 17% of the Moon is Illuminated
Oct 8
Waxing Crescent
Oct 11
First Quarter
Oct 18
Full
Oct 26
Last Quarter
Nov 3
New

Hourly Weather History & Observations

Time (PDT) Temp. Windchill Dew Point Humidity Pressure Visibility Wind Dir Wind Speed Gust Speed Precip Events Conditions
12:15 AM 41.0 °F 39.0 °F 37.4 °F 87% 30.03 in 10.0 mi NNE 3.5 mph - N/A   Clear
12:35 AM 41.0 °F - 37.4 °F 87% 30.03 in 10.0 mi Calm Calm - N/A   Clear
12:55 AM 39.2 °F - 37.4 °F 93% 30.02 in 10.0 mi Calm Calm - N/A   Clear
1:15 AM 39.2 °F - 37.4 °F 93% 30.03 in 10.0 mi Calm Calm - N/A   Clear
1:35 AM 39.2 °F - 37.4 °F 93% 30.03 in 10.0 mi Calm Calm - N/A   Clear
1:55 AM 39.2 °F 37.0 °F 37.4 °F 93% 30.03 in 10.0 mi NNE 3.5 mph - N/A   Clear
2:15 AM 39.2 °F - 35.6 °F 87% 30.03 in 10.0 mi Calm Calm - N/A   Clear
2:35 AM 37.4 °F - 35.6 °F 93% 30.04 in 10.0 mi Calm Calm - N/A   Clear
2:55 AM 37.4 °F - 35.6 °F 93% 30.04 in 10.0 mi Calm Calm - N/A   Clear
3:15 AM 37.4 °F - 35.6 °F 93% 30.04 in 10.0 mi Calm Calm - N/A   Clear
3:35 AM 37.4 °F - 35.6 °F 93% 30.04 in 10.0 mi Calm Calm - N/A   Clear
3:55 AM 37.4 °F - 35.6 °F 93% 30.03 in 10.0 mi Calm Calm - N/A   Clear
4:15 AM 37.4 °F - 35.6 °F 93% 30.03 in 10.0 mi Calm Calm - N/A   Clear
4:35 AM 35.6 °F - 33.8 °F 93% 30.02 in 10.0 mi Calm Calm - N/A   Clear
4:55 AM 35.6 °F 32.8 °F 33.8 °F 93% 30.03 in 10.0 mi North 3.5 mph - N/A   Clear
5:15 AM 35.6 °F - 33.8 °F 93% 30.02 in 10.0 mi Calm Calm - N/A   Partly Cloudy
5:35 AM 35.6 °F - 32.0 °F 87% 30.03 in 10.0 mi Calm Calm - N/A   Scattered Clouds
5:55 AM 35.6 °F - 32.0 °F 87% 30.03 in 10.0 mi Calm Calm - N/A   Mostly Cloudy
6:15 AM 35.6 °F - 32.0 °F 87% 30.03 in 10.0 mi Calm Calm - N/A   Mostly Cloudy
6:35 AM 35.6 °F - 32.0 °F 87% 30.03 in 10.0 mi Calm Calm - N/A   Scattered Clouds
6:55 AM 35.6 °F - 33.8 °F 93% 30.03 in 10.0 mi Calm Calm - N/A   Overcast
7:15 AM 35.6 °F - 33.8 °F 93% 30.03 in 10.0 mi Calm Calm - N/A   Overcast
7:35 AM 37.4 °F - 35.6 °F 93% 30.03 in 10.0 mi Calm Calm - N/A   Overcast
7:55 AM 39.2 °F - 35.6 °F 87% 30.04 in 10.0 mi Calm Calm - N/A   Overcast
8:15 AM 39.2 °F - 37.4 °F 93% 30.04 in 10.0 mi Calm Calm - N/A   Overcast
8:35 AM 41.0 °F - 37.4 °F 87% 30.04 in 8.0 mi Calm Calm - N/A   Overcast
8:55 AM 41.0 °F - 39.2 °F 93% 30.04 in 5.0 mi Calm Calm - N/A   Overcast
9:15 AM 41.0 °F - 37.4 °F 87% 30.04 in 10.0 mi Calm Calm - N/A   Overcast
9:35 AM 41.0 °F - 39.2 °F 93% 30.04 in 10.0 mi Calm Calm - N/A   Overcast
9:55 AM 41.0 °F - 39.2 °F 93% 30.03 in 9.0 mi Calm Calm - N/A   Mostly Cloudy
10:15 AM 44.6 °F - 39.2 °F 81% 30.03 in 10.0 mi Calm Calm - N/A   Mostly Cloudy
10:35 AM 46.4 °F 44.3 °F 41.0 °F 81% 30.02 in 10.0 mi North 4.6 mph - N/A   Partly Cloudy
10:55 AM 48.2 °F - 41.0 °F 76% 30.02 in 10.0 mi Calm Calm - N/A   Clear
11:15 AM 50.0 °F - 41.0 °F 71% 30.01 in 10.0 mi Calm Calm - N/A   Clear
11:35 AM 51.8 °F - 41.0 °F 67% 30.00 in 10.0 mi SW 3.5 mph - N/A   Clear
11:55 AM 53.6 °F - 41.0 °F 62% 29.99 in 10.0 mi Calm Calm - N/A   Clear
12:15 PM 55.4 °F - 39.2 °F 54% 29.98 in 10.0 mi Calm Calm - N/A   Clear
12:35 PM 55.4 °F - 37.4 °F 51% 29.96 in 10.0 mi NNE 4.6 mph - N/A   Clear
12:55 PM 57.2 °F - 37.4 °F 48% 29.96 in 10.0 mi Calm Calm - N/A   Clear
1:15 PM 59.0 °F - 39.2 °F 48% 29.94 in 10.0 mi Calm Calm - N/A   Clear
1:35 PM 60.8 °F - 39.2 °F 45% 29.92 in 10.0 mi SW 5.8 mph - N/A   Clear
1:55 PM 62.6 °F - 35.6 °F 37% 29.91 in 10.0 mi Calm Calm - N/A   Clear
2:15 PM 62.6 °F - 37.4 °F 39% 29.90 in 10.0 mi SW 4.6 mph - N/A   Clear
2:35 PM 64.4 °F - 35.6 °F 34% 29.89 in 10.0 mi South 3.5 mph - N/A   Clear
2:55 PM 64.4 °F - 35.6 °F 34% 29.88 in 10.0 mi Calm Calm - N/A   Clear
3:15 PM 64.4 °F - 35.6 °F 34% 29.87 in 10.0 mi Calm Calm - N/A   Clear
3:35 PM 64.4 °F - 32.0 °F 30% 29.86 in 10.0 mi SE 3.5 mph - N/A   Clear
3:55 PM 66.2 °F - 32.0 °F 28% 29.85 in 10.0 mi South 4.6 mph - N/A   Clear
4:15 PM 66.2 °F - 32.0 °F 28% 29.85 in 10.0 mi Calm Calm - N/A   Clear
4:35 PM 66.2 °F - 32.0 °F 28% 29.84 in 10.0 mi WSW 8.1 mph - N/A   Partly Cloudy
4:55 PM 66.2 °F - 35.6 °F 32% 29.83 in 10.0 mi West 6.9 mph - N/A   Clear
5:15 PM 64.4 °F - 35.6 °F 34% 29.83 in 10.0 mi SW 8.1 mph - N/A   Mostly Cloudy
5:35 PM 64.4 °F - 35.6 °F 34% 29.82 in 10.0 mi West 10.4 mph - N/A   Mostly Cloudy
5:55 PM 64.4 °F - 35.6 °F 34% 29.83 in 10.0 mi North 4.6 mph - N/A   Mostly Cloudy
6:15 PM 64.4 °F - 30.2 °F 28% 29.83 in 10.0 mi SW 3.5 mph - N/A   Mostly Cloudy
6:35 PM 62.6 °F - 35.6 °F 37% 29.84 in 10.0 mi WSW 3.5 mph - N/A   Scattered Clouds
6:55 PM 59.0 °F - 37.4 °F 45% 29.84 in 10.0 mi Calm Calm - N/A   Scattered Clouds
7:15 PM 57.2 °F - 35.6 °F 44% 29.84 in 10.0 mi Calm Calm - N/A   Partly Cloudy
7:35 PM 53.6 °F - 37.4 °F 54% 29.83 in 10.0 mi Calm Calm - N/A   Scattered Clouds
7:55 PM 50.0 °F - 35.6 °F 58% 29.83 in 10.0 mi Calm Calm - N/A   Partly Cloudy
8:15 PM 50.0 °F - 35.6 °F 58% 29.82 in 10.0 mi NNE 3.5 mph - N/A   Partly Cloudy
8:35 PM 50.0 °F - 35.6 °F 58% 29.82 in 10.0 mi North 4.6 mph - N/A   Partly Cloudy
8:55 PM 48.2 °F - 35.6 °F 62% 29.83 in 10.0 mi Calm Calm - N/A   Clear
9:15 PM 46.4 °F - 35.6 °F 66% 29.83 in 10.0 mi Calm Calm - N/A   Clear
9:35 PM 44.6 °F - 35.6 °F 71% 29.82 in 10.0 mi Calm Calm - N/A   Clear
9:55 PM 44.6 °F 43.1 °F 35.6 °F 71% 29.82 in 10.0 mi East 3.5 mph - N/A   Clear
10:15 PM 44.6 °F - 35.6 °F 71% 29.82 in 10.0 mi Calm Calm - N/A   Clear
10:35 PM 42.8 °F - 35.6 °F 76% 29.82 in 10.0 mi Calm Calm - N/A   Clear
10:55 PM 41.0 °F - 35.6 °F 81% 29.81 in 10.0 mi Calm Calm - N/A   Clear
11:15 PM 41.0 °F - 35.6 °F 81% 29.81 in 10.0 mi Calm Calm - N/A   Clear
11:35 PM 41.0 °F 39.0 °F 35.6 °F 81% 29.81 in 10.0 mi North 3.5 mph - N/A   Clear
11:55 PM 41.0 °F 39.0 °F 35.6 °F 81% 29.81 in 10.0 mi NE 3.5 mph - N/A   Clear